Home > Weather > Kailua-Kona > Past weeks

Flag for USA Weather for the Past 2 Weeks in Kailua-Kona, Hawaii, USA

Now
76 °F

Sunny.


Feels Like: 77 °F
Forecast: 68 / 78 °F
Wind: 7 mph from Southeast

Location: Keahole Airport

Current Time: May 6, 2016 at 7:54:03 AM

Latest Report: May 6, 2016 at 6:53 AM


Visibility: 10 mi

Pressure: 30.03 "Hg

Humidity: 74%

Dew Point: 67 °F

Location of Kailua-KonaLocation

Historic Weather in Kailua-Kona — Graph

°F

Kailua-Kona Temperature Yesterday

Maximum temperature yesterday: 83 °F (at 11:53 AM)
Minimum temperature yesterday: 73 °F (at 4:44 AM)
Average temperature yesterday: 78 °F

High & Low Weather Summary for the Past Weeks

 TemperatureHumidityPressure
High85 °F (Apr 23, 1:53 PM)94% (Apr 24, 5:38 AM)30.09 "Hg (Apr 24, 5:38 AM)
Low72 °F (May 2, 4:53 AM)49% (Apr 23, 2:53 PM)29.96 "Hg (Apr 25, 4:53 PM)
Average79 °F67%30.03 "Hg
* Reported Apr 21 5:53 AM — May 6 5:53 AM, Kailua-Kona, Weather by CustomWeather, © 2016

Note: Actual official high and low records may vary slightly from our data, if they occured in-between our weather recording intervals... More about our weather records

Advertising

Kailua-Kona Weather History for the Previous 24 Hours

Scroll right to see more
 ConditionsComfort  
Time TempWeatherWind HumidityBarometerVisibility
5:53 AM
Fri, May 6
74 °FPassing clouds.7 mph74%30.01 "Hg10 mi
4:53 AM74 °FClear.7 mph69%30.01 "Hg10 mi
3:53 AM74 °FClear.6 mph69%30.00 "Hg10 mi
2:53 AM75 °FClear.7 mph66%30.00 "Hg10 mi
1:53 AM75 °FClear.No wind69%30.01 "Hg10 mi
12:53 AM78 °FClear.3 mph69%30.03 "Hg10 mi
11:53 PM
Thu, May 5
78 °FPassing clouds.3 mph66%30.05 "Hg10 mi
10:53 PM78 °FOvercast.6 mph71%30.06 "Hg10 mi
9:53 PM78 °FOvercast.3 mph74%30.05 "Hg10 mi
8:53 PM79 °FPartly cloudy.3 mph72%30.04 "Hg10 mi
7:53 PM79 °FPassing clouds.5 mph72%30.01 "Hg10 mi
6:53 PM79 °FClear.7 mph72%30.00 "Hg10 mi
5:53 PM80 °FSunny.8 mph69%29.98 "Hg10 mi
4:53 PM81 °FSunny.6 mph67%29.97 "Hg10 mi
3:53 PM81 °FOvercast.7 mph67%29.98 "Hg10 mi
2:53 PM83 °FScattered clouds.9 mph63%29.98 "Hg10 mi
1:53 PM83 °FScattered clouds.10 mph61%29.99 "Hg10 mi
12:53 PM83 °FPassing clouds.10 mph61%30.01 "Hg10 mi
11:53 AM83 °FSunny.8 mph63%30.03 "Hg10 mi
10:53 AM81 °FSunny.8 mph67%30.03 "Hg10 mi
9:53 AM80 °FPassing clouds.6 mph71%30.04 "Hg10 mi
8:53 AM79 °FPartly sunny.5 mph72%30.04 "Hg10 mi
7:53 AM77 °FScattered clouds.No wind66%30.03 "Hg10 mi
Weather by CustomWeather, © 2016

See weather overviewHow to use our weather pages